| time (UTC) | temp C | wind direction | speed KPH | gust KPH | rain 1hr cm | rain 24hr cm | rain mn cm | humidity % | barometer mb |
| 20260503173035 | 11 | 345 | 0.0 | 0.0 | 0.00 | 0.00 | 0.00 | 81 | 1014.3 |
| 20260503171542 | 11 | 345 | 0.0 | 0.0 | 0.00 | 0.00 | 0.00 | 82 | 1014.4 |
| 20260503090112 | 14 | 345 | 0.0 | 0.0 | 0.00 | 0.00 | 0.00 | 68 | 1015.5 |
| 20260503081541 | 18 | 345 | 0.0 | 0.0 | 0.00 | 0.00 | 0.00 | 59 | 1015.4 |
| 20260503071524 | 20 | 347 | 0.0 | 3.2 | 0.00 | 0.00 | 0.00 | 55 | 1015.1 |
| 20260503054555 | 22 | 31 | 1.6 | 9.7 | 0.00 | 0.00 | 0.00 | 50 | 1015.4 |
| 20260503053042 | 22 | 330 | 1.6 | 11.3 | 0.00 | 0.00 | 0.00 | 50 | 1015.3 |
| 20260503051540 | 22 | 347 | 1.6 | 12.9 | 0.00 | 0.00 | 0.00 | 50 | 1015.5 |
| 20260503050044 | 22 | 347 | 0.0 | 11.3 | 0.00 | 0.00 | 0.00 | 50 | 1015.5 |
| 20260503044515 | 22 | 22 | 6.4 | 12.9 | 0.00 | 0.00 | 0.00 | 49 | 1015.6 |
| 20260503043005 | 22 | 356 | 4.8 | 12.9 | 0.00 | 0.00 | 0.00 | 49 | 1015.7 |
| 20260503041606 | 23 | 330 | 11.3 | 20.9 | 0.00 | 0.00 | 0.00 | 49 | 1015.6 |
| 20260503041501 | 23 | 318 | 6.4 | 16.1 | 0.00 | 0.00 | 0.00 | 49 | 1015.7 |
| 20260503040058 | 22 | 315 | 3.2 | 16.1 | 0.00 | 0.00 | 0.00 | 49 | 1015.8 |
| 20260503034556 | 23 | 312 | 11.3 | 20.9 | 0.00 | 0.00 | 0.00 | 49 | 1016.0 |
| 20260503033054 | 23 | 315 | 9.7 | 20.9 | 0.00 | 0.00 | 0.00 | 49 | 1016.2 |
| 20260503031544 | 22 | 304 | 9.7 | 20.9 | 0.00 | 0.00 | 0.00 | 49 | 1016.4 |
| 20260503030040 | 22 | 297 | 16.1 | 29.0 | 0.00 | 0.00 | 0.00 | 50 | 1016.6 |
| 20260503024538 | 22 | 324 | 12.9 | 20.9 | 0.00 | 0.00 | 0.00 | 50 | 1016.9 |
| 20260503023034 | 22 | 310 | 17.7 | 27.4 | 0.00 | 0.00 | 0.00 | 51 | 1017.2 |
| 20260503021527 | 22 | 326 | 11.3 | 25.7 | 0.00 | 0.00 | 0.00 | 51 | 1017.4 |
| 20260503020024 | 22 | 351 | 8.0 | 16.1 | 0.00 | 0.00 | 0.00 | 54 | 1017.8 |
| 20260503014518 | 21 | 29 | 1.6 | 17.7 | 0.00 | 0.00 | 0.00 | 55 | 1018.1 |
| 20260503013017 | 21 | 17 | 4.8 | 16.1 | 0.00 | 0.00 | 0.00 | 56 | 1018.5 |
| 20260503011553 | 20 | 322 | 8.0 | 17.7 | 0.00 | 0.00 | 0.00 | 57 | 1018.7 |
| 20260503010045 | 21 | 16 | 3.2 | 11.3 | 0.00 | 0.00 | 0.00 | 57 | 1018.9 |
| 20260503004513 | 21 | 311 | 6.4 | 22.5 | 0.00 | 0.00 | 0.00 | 59 | 1019.1 |
| 20260503003009 | 20 | 47 | 0.0 | 1.6 | 0.00 | 0.00 | 0.00 | 67 | 1019.1 |
| 20260503001538 | 18 | 185 | 0.0 | 1.6 | 0.00 | 0.00 | 0.00 | 69 | 1019.5 |
| 20260503000055 | 17 | 266 | 0.0 | 4.8 | 0.00 | 0.00 | 0.00 | 73 | 1019.5 |
| 20260502234532 | 17 | 91 | 0.0 | 8.0 | 0.00 | 0.00 | 0.00 | 78 | 1019.5 |
| 20260502233029 | 16 | 107 | 0.0 | 9.7 | 0.00 | 0.00 | 0.00 | 81 | 1019.7 |
| 20260502231533 | 15 | 133 | 4.8 | 12.9 | 0.00 | 0.00 | 0.00 | 87 | 1019.9 |
| 20260502230027 | 15 | 91 | 6.4 | 14.5 | 0.00 | 0.00 | 0.00 | 92 | 1019.8 |
| 20260502224556 | 13 | 87 | 3.2 | 11.3 | 0.00 | 0.00 | 0.00 | 93 | 1019.9 |
| 20260502223055 | 12 | 68 | 3.2 | 4.8 | 0.00 | 0.00 | 0.00 | 94 | 1019.9 |
| 20260502221524 | 12 | 54 | 0.0 | 1.6 | 0.00 | 0.00 | 0.00 | 94 | 1020.0 |
| 20260502220023 | 11 | 54 | 0.0 | 0.0 | 0.00 | 0.00 | 0.00 | 94 | 1019.9 |
| 20260502214516 | 11 | 54 | 0.0 | 0.0 | 0.00 | 0.00 | 0.00 | 94 | 1019.8 |
| 20260502213015 | 10 | 54 | 0.0 | 0.0 | 0.00 | 0.00 | 0.00 | 94 | 1019.8 |
| 20260502211511 | 9 | 54 | 0.0 | 0.0 | 0.00 | 0.00 | 0.00 | 93 | 1019.4 |
| 20260502210007 | 8 | 54 | 0.0 | 3.2 | 0.00 | 0.00 | 0.00 | 92 | 1019.2 |
| 20260502204537 | 8 | 54 | 0.0 | 3.2 | 0.00 | 0.00 | 0.00 | 91 | 1019.1 |
| 20260502203032 | 8 | 54 | 0.0 | 1.6 | 0.00 | 0.00 | 0.00 | 90 | 1018.9 |
| 20260502201526 | 9 | 53 | 0.0 | 3.2 | 0.00 | 0.00 | 0.00 | 91 | 1019.2 |
| 20260502200026 | 9 | 49 | 0.0 | 3.2 | 0.00 | 0.00 | 0.00 | 91 | 1019.0 |
| 20260502194523 | 9 | 49 | 0.0 | 4.8 | 0.00 | 0.00 | 0.00 | 90 | 1019.0 |
| 20260502193021 | 9 | 49 | 0.0 | 3.2 | 0.00 | 0.00 | 0.00 | 91 | 1019.0 |
| 20260502191514 | 10 | 49 | 0.0 | 4.8 | 0.00 | 0.00 | 0.00 | 90 | 1018.7 |
| 20260502190011 | 10 | 49 | 3.2 | 6.4 | 0.00 | 0.00 | 0.00 | 90 | 1018.7 |
| 20260502184509 | 11 | 68 | 3.2 | 11.3 | 0.00 | 0.00 | 0.00 | 90 | 1018.8 |
| 20260502183006 | 11 | 78 | 4.8 | 11.3 | 0.00 | 0.00 | 0.00 | 91 | 1018.6 |
| 20260502181505 | 11 | 72 | 4.8 | 8.0 | 0.00 | 0.00 | 0.00 | 90 | 1018.3 |